Tracking 19906 objects as of 24-Oct-2019
HD Live streaming from Space Station
objects crossing your sky now

SL-8 R/B

Track SL-8 R/B now!
10-day predictions


NORAD ID: 14760
Int'l Code: 1984-019B
Perigee: 759.2 km
Apogee: 799.5 km
Inclination: 74.0 °
Period: 100.3 minutes
Semi major axis: 7150 km
RCS: 4.2796 m2 (large)
Launch date: February 21, 1984
Source: Commonwealth of Independent States (former USSR) (CIS)
Launch site: PLESETSK MISSILE AND SPACE COMPLEX (PKMTR)

Note: This is a ROCKET BODY
aabbcc
Your satellite tracking list
Your tracking list is empty




NASA's NSSDC Master Catalog

Two Line Element Set (TLE):
1 14760U 84019B   19296.66822040  .00000004  00000-0  10285-4 0  9999
2 14760  74.0442 346.9360 0028161 353.2716   6.8054 14.35869901866792
Source of the keplerian elements: AFSPC